Weather History for KPBF - April, 2012

Change the Weather History Date:

Sunday, April 29, 2012

  Actual Average Record
Temperature  
Mean Temperature 73 °F 67 °F  
Max Temperature 85 °F 78 °F 92 °F (1990)
Min Temperature 60 °F 56 °F 41 °F (1904)
Degree Days  
Heating Degree Days 0 2  
Month to date heating degree days 66 127  
Since 1 July heating degree days 2206 2862  
Cooling Degree Days 8 4  
Month to date cooling degree days 81 62  
Year to date cooling degree days 180 82  
Growing Degree Days 23 (Base 50)    
Moisture  
Dew Point 62 °F    
Average Humidity 68    
Maximum Humidity 93    
Minimum Humidity 43    
Precipitation  
Precipitation 0.00 in 0.15 in 1.83 in (1953)
Month to date precipitation 2.62 4.77  
Year to date precipitation 12.30 17.99  
Snow  
Snow 0.00 in 0.00 in - ()
Month to date snowfall 0.0 0.0  
Since 1 July snowfall 0.5 3.1  
Snow Depth 0.00 in    
Sea Level Pressure  
Sea Level Pressure 30.03 in    
Wind  
Wind Speed 7 mph (South)    
Max Wind Speed 17 mph    
Max Gust Speed 22 mph    
Visibility 10 miles    
Events      
T = Trace of Precipitation, MM = Missing Value Source: NWS Daily Summary

Daily Weather History Graph

Daily Weather History Graph

Search for Another Location

Airport or City:

Trip Planner

Search our weather history database for the weather conditions in past years. The results will help you decide how hot, cold, wet, or windy it might be!

Date:

Astronomy

Apr. 29, 2012 Rise Set
Actual Time 6:19 AM CDT 7:50 PM CDT
Civil Twilight 5:53 AM CDT 8:17 PM CDT
Nautical Twilight 5:21 AM CDT 8:49 PM CDT
Astronomical Twilight 4:47 AM CDT 9:23 PM CDT
Moon 1:02 PM CDT (4/29) 1:50 AM CDT (4/29)
Length of Visible Light 14h 24m
Length of Day
13h 30m
First Quarter, 53% of the Moon is Illuminated
Apr 29
First Quarter
May 5
Full
May 12
Last Quarter
May 20
New
May 28
First Quarter

Hourly Weather History & Observations

Time (CDT) Temp. Heat Index Dew Point Humidity Pressure Visibility Wind Dir Wind Speed Gust Speed Precip Events Conditions
12:53 AM 68.0 °F - 63.0 °F 84% 29.98 in 10.0 mi SSE 5.8 mph - N/A   Clear
1:53 AM 66.0 °F - 62.1 °F 87% 29.99 in 10.0 mi SE 4.6 mph - N/A   Clear
2:53 AM 66.0 °F - 62.1 °F 87% 29.99 in 10.0 mi SSW 3.5 mph - N/A   Clear
3:53 AM 64.0 °F - 61.0 °F 90% 30.00 in 10.0 mi South 4.6 mph - N/A   Clear
4:53 AM 64.0 °F - 61.0 °F 90% 30.02 in 10.0 mi Calm Calm - N/A   Clear
5:53 AM 63.0 °F - 61.0 °F 93% 30.03 in 9.0 mi Calm Calm - N/A   Clear
6:53 AM 62.1 °F - 60.1 °F 93% 30.04 in 8.0 mi South 4.6 mph - N/A   Clear
7:53 AM 66.0 °F - 63.0 °F 90% 30.06 in 10.0 mi South 4.6 mph - N/A   Clear
8:53 AM 70.0 °F - 64.0 °F 81% 30.08 in 10.0 mi SW 8.1 mph - N/A   Partly Cloudy
9:39 AM 71.6 °F - 64.4 °F 78% 30.08 in 10.0 mi SSW 11.5 mph - N/A   Mostly Cloudy
9:53 AM 73.0 °F - 64.9 °F 76% 30.08 in 10.0 mi South 12.7 mph - N/A   Mostly Cloudy
10:26 AM 75.2 °F - 64.4 °F 69% 30.09 in 10.0 mi SSW 15.0 mph - N/A   Scattered Clouds
10:53 AM 75.9 °F - 63.0 °F 64% 30.09 in 10.0 mi SSW 15.0 mph - N/A   Partly Cloudy
11:53 AM 78.1 °F - 63.0 °F 60% 30.08 in 10.0 mi South 12.7 mph - N/A   Scattered Clouds
12:53 PM 80.1 °F 81.5 °F 63.0 °F 56% 30.06 in 10.0 mi SSW 10.4 mph 16.1 mph N/A   Clear
1:53 PM 82.0 °F 82.4 °F 60.1 °F 47% 30.04 in 10.0 mi South 8.1 mph - N/A   Clear
2:53 PM 82.9 °F 83.2 °F 60.1 °F 46% 30.02 in 10.0 mi Variable 6.9 mph - N/A   Clear
3:53 PM 84.0 °F 84.0 °F 60.1 °F 44% 30.00 in 10.0 mi South 10.4 mph - N/A   Clear
4:53 PM 84.0 °F 83.8 °F 59.0 °F 43% 29.99 in 10.0 mi SSW 9.2 mph - N/A   Clear
5:53 PM 81.0 °F 81.3 °F 59.0 °F 47% 29.99 in 10.0 mi South 6.9 mph - N/A   Clear
6:53 PM 81.0 °F 81.9 °F 62.1 °F 52% 29.99 in 10.0 mi South 6.9 mph - N/A   Clear
7:53 PM 75.0 °F - 63.0 °F 66% 30.00 in 10.0 mi SSE 4.6 mph - N/A   Clear
8:53 PM 73.4 °F - 62.6 °F 69% 30.02 in 10.0 mi SSE 5.8 mph - N/A   Clear
9:53 PM 69.1 °F - 62.1 °F 78% 30.02 in 10.0 mi SSE 6.9 mph - N/A   Clear
10:53 PM 68.0 °F - 61.0 °F 78% 30.03 in 10.0 mi South 8.1 mph - N/A   Clear
11:53 PM 68.0 °F - 61.0 °F 78% 30.01 in 10.0 mi South 9.2 mph - N/A   Clear